Time,TemperatureF,DewpointF,PressureIn,WindDirection,WindDirectionDegrees,WindSpeedMPH,WindSpeedGustMPH,Humidity,HourlyPrecipIn,Conditions,Clouds,dailyrainin,SoftwareType,DateUTC
2013-10-08 00:00:00,57.1,52.6,30.07,SE,138,0.0,0.0,85,0.00,,CLR,0.00,VWS V14.01,2013-10-08 05:00:00,
2013-10-08 00:04:00,57.1,53.6,30.07,SE,138,0.0,0.0,88,0.00,,CLR,0.00,VWS V14.01,2013-10-08 05:04:00,
2013-10-08 00:09:00,57.3,53.8,30.07,SE,138,0.0,0.0,88,0.00,,CLR,0.00,VWS V14.01,2013-10-08 05:09:00,
2013-10-08 00:10:00,57.0,52.9,30.07,SE,138,0.0,0.0,86,0.00,,CLR,0.00,VWS V14.01,2013-10-08 05:10:00,
2013-10-08 00:14:00,57.3,53.8,30.07,SE,138,0.0,0.0,88,0.00,,CLR,0.00,VWS V14.01,2013-10-08 05:14:00,
2013-10-08 00:19:00,57.1,53.6,30.07,SE,138,0.0,0.0,88,0.00,,CLR,0.00,VWS V14.01,2013-10-08 05:19:00,
2013-10-08 00:20:00,57.1,53.6,30.07,SE,138,0.0,0.0,88,0.00,,CLR,0.00,VWS V14.01,2013-10-08 05:20:00,
2013-10-08 00:24:00,57.0,53.5,30.07,SE,138,0.0,0.0,88,0.00,,CLR,0.00,VWS V14.01,2013-10-08 05:24:00,
2013-10-08 00:29:00,57.0,53.5,30.07,SE,138,0.0,0.0,88,0.00,,CLR,0.00,VWS V14.01,2013-10-08 05:29:00,
2013-10-08 00:30:00,57.3,53.8,30.07,SE,138,0.0,0.0,88,0.00,,CLR,0.00,VWS V14.01,2013-10-08 05:30:00,
2013-10-08 00:34:00,56.8,53.3,30.07,SE,138,0.0,0.0,88,0.00,,CLR,0.00,VWS V14.01,2013-10-08 05:34:00,
2013-10-08 00:39:00,56.7,53.5,30.07,SE,138,0.0,0.0,89,0.00,,CLR,0.00,VWS V14.01,2013-10-08 05:39:00,
2013-10-08 00:40:00,57.0,53.5,30.07,SE,138,0.0,0.0,88,0.00,,CLR,0.00,VWS V14.01,2013-10-08 05:40:00,
2013-10-08 00:44:00,56.7,53.5,30.07,SE,138,0.0,0.0,89,0.00,,CLR,0.00,VWS V14.01,2013-10-08 05:44:00,
2013-10-08 00:49:00,56.7,53.5,30.07,SE,138,0.0,0.0,89,0.00,,CLR,0.00,VWS V14.01,2013-10-08 05:49:00,
2013-10-08 00:50:00,56.8,53.3,30.07,SE,138,0.0,0.0,88,0.00,,CLR,0.00,VWS V14.01,2013-10-08 05:50:00,
2013-10-08 00:54:00,56.5,53.3,30.07,SE,138,0.0,0.0,89,0.00,,CLR,0.00,VWS V14.01,2013-10-08 05:54:00,
2013-10-08 00:59:00,56.5,53.3,30.07,SE,138,0.0,0.0,89,0.00,,CLR,0.00,VWS V14.01,2013-10-08 05:59:00,
2013-10-08 01:00:00,56.7,53.5,30.07,SE,138,0.0,0.0,89,0.00,,CLR,0.00,VWS V14.01,2013-10-08 06:00:00,
2013-10-08 01:04:00,56.4,53.2,30.07,SE,138,0.0,0.0,89,0.00,,CLR,0.00,VWS V14.01,2013-10-08 06:04:00,
2013-10-08 01:09:00,56.4,53.5,30.07,SE,138,0.0,0.0,90,0.00,,CLR,0.00,VWS V14.01,2013-10-08 06:09:00,
2013-10-08 01:10:00,56.5,53.3,30.07,SE,138,0.0,0.0,89,0.00,,CLR,0.00,VWS V14.01,2013-10-08 06:10:00,
2013-10-08 01:14:00,56.4,53.5,30.07,SE,138,0.0,0.0,90,0.00,,CLR,0.00,VWS V14.01,2013-10-08 06:14:00,
2013-10-08 01:19:00,56.2,53.3,30.07,SE,138,0.0,0.0,90,0.00,,CLR,0.00,VWS V14.01,2013-10-08 06:19:00,
2013-10-08 01:20:00,56.4,53.2,30.07,SE,138,0.0,0.0,89,0.00,,CLR,0.00,VWS V14.01,2013-10-08 06:20:00,
2013-10-08 01:24:00,56.2,53.3,30.07,SE,138,0.0,0.0,90,0.00,,CLR,0.00,VWS V14.01,2013-10-08 06:24:00,
2013-10-08 01:29:00,56.1,53.2,30.07,SE,138,0.0,0.0,90,0.00,,CLR,0.00,VWS V14.01,2013-10-08 06:29:00,
2013-10-08 01:30:00,56.2,53.3,30.07,SE,138,0.0,0.0,90,0.00,,CLR,0.00,VWS V14.01,2013-10-08 06:30:00,
2013-10-08 01:34:00,56.1,53.2,30.06,SE,138,0.0,0.0,90,0.00,,CLR,0.00,VWS V14.01,2013-10-08 06:34:00,
2013-10-08 01:39:00,56.1,53.5,30.06,SE,138,0.0,0.0,91,0.00,,CLR,0.00,VWS V14.01,2013-10-08 06:39:00,
2013-10-08 01:40:00,56.1,53.2,30.07,SE,138,0.0,0.0,90,0.00,,CLR,0.00,VWS V14.01,2013-10-08 06:40:00,
2013-10-08 01:44:00,56.2,53.6,30.06,SE,138,0.0,0.0,91,0.00,,CLR,0.00,VWS V14.01,2013-10-08 06:44:00,
2013-10-08 01:49:00,56.4,53.8,30.07,SE,138,0.0,0.0,91,0.00,,CLR,0.00,VWS V14.01,2013-10-08 06:49:00,
2013-10-08 01:50:00,56.1,53.2,30.06,SE,138,0.0,0.0,90,0.00,,CLR,0.00,VWS V14.01,2013-10-08 06:50:00,
2013-10-08 01:54:00,56.4,53.8,30.07,SE,138,0.0,0.0,91,0.00,,CLR,0.00,VWS V14.01,2013-10-08 06:54:00,
2013-10-08 01:59:00,56.2,53.6,30.07,SE,138,0.0,0.0,91,0.00,,CLR,0.00,VWS V14.01,2013-10-08 06:59:00,
2013-10-08 02:00:00,56.2,53.6,30.07,SE,138,0.0,0.0,91,0.00,,CLR,0.00,VWS V14.01,2013-10-08 07:00:00,
2013-10-08 02:04:00,56.2,53.6,30.07,SE,138,0.0,0.0,91,0.00,,CLR,0.00,VWS V14.01,2013-10-08 07:04:00,
2013-10-08 02:09:00,56.1,53.5,30.07,SE,138,0.0,0.0,91,0.00,,CLR,0.00,VWS V14.01,2013-10-08 07:09:00,
2013-10-08 02:10:00,56.4,53.8,30.07,SE,138,0.0,0.0,91,0.00,,CLR,0.00,VWS V14.01,2013-10-08 07:10:00,
2013-10-08 02:14:00,56.1,53.5,30.07,SE,138,0.0,0.0,91,0.00,,CLR,0.00,VWS V14.01,2013-10-08 07:14:00,
2013-10-08 02:19:00,56.0,53.4,30.06,SE,138,0.0,0.0,91,0.00,,CLR,0.00,VWS V14.01,2013-10-08 07:19:00,
2013-10-08 02:20:00,56.2,53.6,30.07,SE,138,0.0,0.0,91,0.00,,CLR,0.00,VWS V14.01,2013-10-08 07:20:00,
2013-10-08 02:24:00,55.8,53.2,30.06,SE,138,0.0,0.0,91,0.00,,CLR,0.00,VWS V14.01,2013-10-08 07:24:00,
2013-10-08 02:29:00,55.8,53.2,30.06,SE,138,0.0,0.0,91,0.00,,CLR,0.00,VWS V14.01,2013-10-08 07:29:00,
2013-10-08 02:30:00,56.1,53.5,30.06,SE,138,0.0,0.0,91,0.00,,CLR,0.00,VWS V14.01,2013-10-08 07:30:00,
2013-10-08 02:34:00,55.7,53.1,30.06,SE,138,0.0,0.0,91,0.00,,CLR,0.00,VWS V14.01,2013-10-08 07:34:00,
2013-10-08 02:39:00,55.5,52.9,30.06,SE,138,0.0,0.0,91,0.00,,CLR,0.00,VWS V14.01,2013-10-08 07:39:00,
2013-10-08 02:40:00,55.8,53.2,30.06,SE,138,0.0,0.0,91,0.00,,CLR,0.00,VWS V14.01,2013-10-08 07:40:00,
2013-10-08 02:44:00,55.2,52.6,30.06,SE,138,0.0,0.0,91,0.00,,CLR,0.00,VWS V14.01,2013-10-08 07:44:00,
2013-10-08 02:49:00,55.1,52.5,30.06,SE,138,0.0,0.0,91,0.00,,CLR,0.00,VWS V14.01,2013-10-08 07:49:00,
2013-10-08 02:50:00,55.7,53.1,30.06,SE,138,0.0,0.0,91,0.00,,CLR,0.00,VWS V14.01,2013-10-08 07:50:00,
2013-10-08 02:54:00,55.1,52.5,30.06,SE,138,0.0,0.0,91,0.00,,CLR,0.00,VWS V14.01,2013-10-08 07:54:00,
2013-10-08 02:59:00,54.9,52.3,30.06,SE,138,0.0,0.0,91,0.00,,CLR,0.00,VWS V14.01,2013-10-08 07:59:00,
2013-10-08 03:00:00,55.2,52.6,30.06,SE,138,0.0,0.0,91,0.00,,CLR,0.00,VWS V14.01,2013-10-08 08:00:00,
2013-10-08 03:04:00,55.1,52.8,30.06,SE,138,0.0,0.0,92,0.00,,CLR,0.00,VWS V14.01,2013-10-08 08:04:00,
2013-10-08 03:09:00,55.2,52.9,30.06,SE,138,0.0,0.0,92,0.00,,CLR,0.00,VWS V14.01,2013-10-08 08:09:00,
2013-10-08 03:10:00,54.9,52.3,30.06,SE,138,0.0,0.0,91,0.00,,CLR,0.00,VWS V14.01,2013-10-08 08:10:00,
2013-10-08 03:14:00,55.4,53.1,30.06,South,184,0.0,0.0,92,0.00,,CLR,0.00,VWS V14.01,2013-10-08 08:14:00,
2013-10-08 03:19:00,55.4,52.8,30.06,South,184,0.0,0.0,91,0.00,,CLR,0.00,VWS V14.01,2013-10-08 08:19:00,
2013-10-08 03:20:00,55.1,52.8,30.06,SE,138,0.0,0.0,92,0.00,,CLR,0.00,VWS V14.01,2013-10-08 08:20:00,
2013-10-08 03:24:00,55.2,52.3,30.06,South,184,0.0,0.0,90,0.00,,CLR,0.00,VWS V14.01,2013-10-08 08:24:00,
2013-10-08 03:29:00,54.9,52.0,30.06,South,184,0.0,0.0,90,0.00,,CLR,0.00,VWS V14.01,2013-10-08 08:29:00,
2013-10-08 03:30:00,55.4,52.8,30.06,South,184,0.0,0.0,91,0.00,,CLR,0.00,VWS V14.01,2013-10-08 08:30:00,
2013-10-08 03:34:00,54.6,51.7,30.06,South,184,0.0,0.0,90,0.00,,CLR,0.00,VWS V14.01,2013-10-08 08:34:00,
2013-10-08 03:39:00,54.5,51.6,30.06,South,184,0.0,0.0,90,0.00,,CLR,0.00,VWS V14.01,2013-10-08 08:39:00,
2013-10-08 03:40:00,55.1,52.2,30.06,South,184,0.0,0.0,90,0.00,,CLR,0.00,VWS V14.01,2013-10-08 08:40:00,
2013-10-08 03:44:00,54.3,51.4,30.06,South,184,0.0,0.0,90,0.00,,CLR,0.00,VWS V14.01,2013-10-08 08:44:00,
2013-10-08 03:49:00,54.2,51.3,30.06,South,184,0.0,0.0,90,0.00,,CLR,0.00,VWS V14.01,2013-10-08 08:49:00,
2013-10-08 03:50:00,54.6,51.7,30.06,South,184,0.0,0.0,90,0.00,,CLR,0.00,VWS V14.01,2013-10-08 08:50:00,
2013-10-08 03:54:00,53.9,51.0,30.06,South,184,0.0,0.0,90,0.00,,CLR,0.00,VWS V14.01,2013-10-08 08:54:00,
2013-10-08 03:59:00,53.9,51.0,30.06,South,184,0.0,0.0,90,0.00,,CLR,0.00,VWS V14.01,2013-10-08 08:59:00,
2013-10-08 04:00:00,54.3,51.4,30.06,South,184,0.0,0.0,90,0.00,,CLR,0.00,VWS V14.01,2013-10-08 09:00:00,
2013-10-08 04:04:00,53.7,50.8,30.06,South,184,0.0,0.0,90,0.00,,CLR,0.00,VWS V14.01,2013-10-08 09:04:00,
2013-10-08 04:09:00,53.6,50.7,30.06,South,184,0.0,0.0,90,0.00,,CLR,0.00,VWS V14.01,2013-10-08 09:09:00,
2013-10-08 04:10:00,53.9,51.0,30.06,South,184,0.0,0.0,90,0.00,,CLR,0.00,VWS V14.01,2013-10-08 09:10:00,
2013-10-08 04:14:00,53.6,50.7,30.06,South,184,0.0,0.0,90,0.00,,CLR,0.00,VWS V14.01,2013-10-08 09:14:00,
2013-10-08 04:19:00,53.6,51.0,30.06,South,184,0.0,0.0,91,0.00,,CLR,0.00,VWS V14.01,2013-10-08 09:19:00,
2013-10-08 04:20:00,53.7,50.8,30.06,South,184,0.0,0.0,90,0.00,,CLR,0.00,VWS V14.01,2013-10-08 09:20:00,
2013-10-08 04:24:00,53.6,51.0,30.06,South,184,0.0,0.0,91,0.00,,CLR,0.00,VWS V14.01,2013-10-08 09:24:00,
2013-10-08 04:29:00,53.4,50.8,30.06,South,184,0.0,0.0,91,0.00,,CLR,0.00,VWS V14.01,2013-10-08 09:29:00,
2013-10-08 04:30:00,55.4,52.8,30.06,South,184,0.0,0.0,91,0.00,,CLR,0.00,VWS V15.00,2013-10-08 09:30:00,
2013-10-08 04:34:00,53.4,50.8,30.06,South,184,0.0,0.0,91,0.00,,CLR,0.00,VWS V14.01,2013-10-08 09:34:00,
2013-10-08 04:39:00,53.3,50.7,30.06,South,184,0.0,0.0,91,0.00,,CLR,0.00,VWS V14.01,2013-10-08 09:39:00,
2013-10-08 04:40:00,53.6,51.0,30.06,South,184,0.0,0.0,91,0.00,,CLR,0.00,VWS V14.01,2013-10-08 09:40:00,
2013-10-08 04:44:00,53.1,50.5,30.06,South,184,0.0,0.0,91,0.00,,CLR,0.00,VWS V14.01,2013-10-08 09:44:00,
2013-10-08 04:49:00,53.1,50.5,30.06,South,184,0.0,0.0,91,0.00,,CLR,0.00,VWS V14.01,2013-10-08 09:49:00,
2013-10-08 04:50:00,53.3,50.7,30.06,South,184,0.0,0.0,91,0.00,,CLR,0.00,VWS V14.01,2013-10-08 09:50:00,
2013-10-08 04:54:00,53.0,50.5,30.06,South,184,0.0,0.0,91,0.00,,CLR,0.00,VWS V14.01,2013-10-08 09:54:00,
2013-10-08 04:59:00,52.8,50.2,30.06,South,184,0.0,0.0,91,0.00,,CLR,0.00,VWS V14.01,2013-10-08 09:59:00,
2013-10-08 05:00:00,53.1,50.5,30.06,South,184,0.0,0.0,91,0.00,,CLR,0.00,VWS V14.01,2013-10-08 10:00:00,
2013-10-08 05:04:00,52.7,50.2,30.06,South,184,0.0,0.0,91,0.00,,CLR,0.00,VWS V14.01,2013-10-08 10:04:00,
2013-10-08 05:09:00,52.7,50.2,30.06,South,184,0.0,0.0,91,0.00,,CLR,0.00,VWS V14.01,2013-10-08 10:09:00,
2013-10-08 05:10:00,53.0,50.5,30.06,South,184,0.0,0.0,91,0.00,,CLR,0.00,VWS V14.01,2013-10-08 10:10:00,
2013-10-08 05:14:00,52.7,50.5,30.06,South,184,0.0,0.0,92,0.00,,CLR,0.00,VWS V14.01,2013-10-08 10:14:00,
2013-10-08 05:19:00,52.7,50.5,30.06,South,184,0.0,0.0,92,0.00,,CLR,0.00,VWS V14.01,2013-10-08 10:19:00,
2013-10-08 05:20:00,52.7,50.2,30.06,South,184,0.0,0.0,91,0.00,,CLR,0.00,VWS V14.01,2013-10-08 10:20:00,
2013-10-08 05:24:00,52.7,50.5,30.06,South,184,0.0,0.0,92,0.00,,CLR,0.00,VWS V14.01,2013-10-08 10:24:00,
2013-10-08 05:29:00,52.7,50.5,30.06,South,184,0.0,0.0,92,0.00,,CLR,0.00,VWS V14.01,2013-10-08 10:29:00,
2013-10-08 05:30:00,52.7,50.5,30.06,South,184,0.0,0.0,92,0.00,,CLR,0.00,VWS V14.01,2013-10-08 10:30:00,
2013-10-08 05:34:00,52.7,50.5,30.06,South,184,0.0,0.0,92,0.00,,CLR,0.00,VWS V14.01,2013-10-08 10:34:00,
2013-10-08 05:39:00,52.6,50.3,30.06,South,184,0.0,0.0,92,0.00,,CLR,0.00,VWS V14.01,2013-10-08 10:39:00,
2013-10-08 05:40:00,52.7,50.5,30.06,South,184,0.0,0.0,92,0.00,,CLR,0.00,VWS V14.01,2013-10-08 10:40:00,
2013-10-08 05:45:00,52.6,50.3,30.06,South,184,0.0,0.0,92,0.00,,CLR,0.00,VWS V14.01,2013-10-08 10:45:00,
2013-10-08 05:50:00,52.6,50.3,30.06,South,184,0.0,0.0,92,0.00,,CLR,0.00,VWS V14.01,2013-10-08 10:50:00,
2013-10-08 05:55:00,52.4,50.2,30.06,South,184,0.0,0.0,92,0.00,,CLR,0.00,VWS V14.01,2013-10-08 10:55:00,
2013-10-08 06:00:00,52.4,50.2,30.06,South,184,0.0,0.0,92,0.00,,CLR,0.00,VWS V14.01,2013-10-08 11:00:00,
2013-10-08 06:05:00,52.4,50.2,30.06,South,184,0.0,0.0,92,0.00,,CLR,0.00,VWS V14.01,2013-10-08 11:05:00,
2013-10-08 06:10:00,52.3,50.0,30.06,South,184,0.0,0.0,92,0.00,,CLR,0.00,VWS V14.01,2013-10-08 11:10:00,
2013-10-08 06:15:00,52.3,50.0,30.06,South,184,0.0,0.0,92,0.00,,CLR,0.00,VWS V14.01,2013-10-08 11:15:00,
2013-10-08 06:20:00,52.1,49.8,30.07,South,184,0.0,0.0,92,0.00,,CLR,0.00,VWS V14.01,2013-10-08 11:20:00,
2013-10-08 06:25:00,52.1,50.1,30.07,South,184,0.0,0.0,93,0.00,,CLR,0.00,VWS V14.01,2013-10-08 11:25:00,
2013-10-08 06:30:00,52.3,50.3,30.07,South,184,0.0,0.0,93,0.00,,CLR,0.00,VWS V14.01,2013-10-08 11:30:00,
2013-10-08 06:35:00,52.7,50.7,30.07,South,184,0.0,0.0,93,0.00,,CLR,0.00,VWS V14.01,2013-10-08 11:35:00,
2013-10-08 06:40:00,52.8,50.8,30.07,South,184,0.0,0.0,93,0.00,,CLR,0.00,VWS V14.01,2013-10-08 11:40:00,
2013-10-08 06:45:00,52.8,50.8,30.07,South,184,0.0,0.0,93,0.00,,CLR,0.00,VWS V14.01,2013-10-08 11:45:00,
2013-10-08 06:50:00,52.8,50.8,30.07,South,184,0.0,0.0,93,0.00,,CLR,0.00,VWS V14.01,2013-10-08 11:50:00,
2013-10-08 06:55:00,52.7,50.7,30.07,South,184,0.0,0.0,93,0.00,,CLR,0.00,VWS V14.01,2013-10-08 11:55:00,
2013-10-08 07:00:00,52.7,50.7,30.07,South,184,0.0,0.0,93,0.00,,CLR,0.00,VWS V14.01,2013-10-08 12:00:00,
2013-10-08 07:05:00,52.6,50.6,30.07,South,184,0.0,0.0,93,0.00,,CLR,0.00,VWS V14.01,2013-10-08 12:05:00,
2013-10-08 07:10:00,52.4,50.4,30.07,South,184,0.0,0.0,93,0.00,,CLR,0.00,VWS V14.01,2013-10-08 12:10:00,
2013-10-08 07:15:00,52.4,50.4,30.07,South,184,0.0,0.0,93,0.00,,CLR,0.00,VWS V14.01,2013-10-08 12:15:00,
2013-10-08 07:20:00,52.4,50.4,30.07,South,184,0.0,0.0,93,0.00,,CLR,0.00,VWS V14.01,2013-10-08 12:20:00,
2013-10-08 07:25:00,52.4,50.4,30.07,South,184,0.0,0.0,93,0.00,,CLR,0.00,VWS V14.01,2013-10-08 12:25:00,
2013-10-08 07:30:00,52.3,50.3,30.07,South,184,0.0,0.0,93,0.00,,CLR,0.00,VWS V14.01,2013-10-08 12:30:00,
2013-10-08 07:35:00,52.3,50.3,30.08,South,184,0.0,0.0,93,0.00,,CLR,0.00,VWS V14.01,2013-10-08 12:35:00,
2013-10-08 07:40:00,52.1,50.1,30.08,South,184,0.0,0.0,93,0.00,,CLR,0.00,VWS V14.01,2013-10-08 12:40:00,
2013-10-08 07:45:00,52.1,50.1,30.08,South,184,0.0,0.0,93,0.00,,CLR,0.00,VWS V14.01,2013-10-08 12:45:00,
2013-10-08 07:50:00,52.0,50.0,30.08,South,184,0.0,0.0,93,0.00,,CLR,0.00,VWS V14.01,2013-10-08 12:50:00,
2013-10-08 07:55:00,52.0,50.0,30.08,South,184,0.0,0.0,93,0.00,,CLR,0.00,VWS V14.01,2013-10-08 12:55:00,
2013-10-08 08:00:00,52.0,50.0,30.08,South,184,0.0,0.0,93,0.00,,CLR,0.00,VWS V14.01,2013-10-08 13:00:00,
2013-10-08 08:05:00,52.0,50.0,30.08,South,184,0.0,0.0,93,0.00,,CLR,0.00,VWS V14.01,2013-10-08 13:05:00,
2013-10-08 08:10:00,52.1,50.1,30.08,South,184,0.0,0.0,93,0.00,,CLR,0.00,VWS V14.01,2013-10-08 13:10:00,
2013-10-08 08:15:00,52.3,50.3,30.08,South,184,0.0,0.0,93,0.00,,CLR,0.00,VWS V14.01,2013-10-08 13:15:00,
2013-10-08 08:20:00,52.3,50.3,30.08,South,184,0.0,0.0,93,0.00,,CLR,0.00,VWS V14.01,2013-10-08 13:20:00,
2013-10-08 08:25:00,52.4,50.7,30.08,South,184,0.0,0.0,94,0.00,,CLR,0.00,VWS V14.01,2013-10-08 13:25:00,
2013-10-08 08:30:00,52.7,51.0,30.08,South,184,0.0,0.0,94,0.00,,CLR,0.00,VWS V14.01,2013-10-08 13:30:00,
2013-10-08 08:35:00,53.1,51.4,30.09,South,184,0.0,0.0,94,0.00,,CLR,0.00,VWS V14.01,2013-10-08 13:35:00,
2013-10-08 08:40:00,53.4,51.7,30.09,South,184,0.0,0.0,94,0.00,,CLR,0.00,VWS V14.01,2013-10-08 13:40:00,
2013-10-08 08:45:00,53.7,51.7,30.09,South,184,0.0,0.0,93,0.00,,CLR,0.00,VWS V14.01,2013-10-08 13:45:00,
2013-10-08 08:50:00,53.9,51.9,30.09,South,184,0.0,0.0,93,0.00,,CLR,0.00,VWS V14.01,2013-10-08 13:50:00,
2013-10-08 08:55:00,54.2,52.2,30.09,South,184,0.0,0.0,93,0.00,,CLR,0.00,VWS V14.01,2013-10-08 13:55:00,
2013-10-08 09:00:00,54.6,52.6,30.09,South,184,0.0,0.0,93,0.00,,CLR,0.00,VWS V14.01,2013-10-08 14:00:00,
2013-10-08 09:05:00,54.9,52.9,30.09,South,184,0.0,0.0,93,0.00,,CLR,0.00,VWS V14.01,2013-10-08 14:05:00,
2013-10-08 09:10:00,55.2,53.2,30.09,South,184,0.0,0.0,93,0.00,,CLR,0.00,VWS V14.01,2013-10-08 14:10:00,
2013-10-08 09:15:00,55.5,53.5,30.09,South,184,0.0,0.0,93,0.00,,CLR,0.00,VWS V14.01,2013-10-08 14:15:00,
2013-10-08 09:20:00,55.8,53.8,30.09,South,184,0.0,0.0,93,0.00,,CLR,0.00,VWS V14.01,2013-10-08 14:20:00,
2013-10-08 09:25:00,56.2,54.2,30.09,South,184,0.0,0.0,93,0.00,,CLR,0.00,VWS V14.01,2013-10-08 14:25:00,
2013-10-08 09:30:00,56.8,54.5,30.09,South,184,0.0,0.0,92,0.00,,CLR,0.00,VWS V14.01,2013-10-08 14:30:00,
2013-10-08 09:35:00,57.6,55.0,30.09,South,184,0.0,0.0,91,0.00,,CLR,0.00,VWS V14.01,2013-10-08 14:35:00,
2013-10-08 09:40:00,58.1,54.9,30.09,South,184,0.0,0.0,89,0.00,,CLR,0.00,VWS V14.01,2013-10-08 14:40:00,
2013-10-08 09:45:00,58.4,53.6,30.09,South,184,0.0,0.0,84,0.00,,CLR,0.00,VWS V14.01,2013-10-08 14:45:00,
2013-10-08 09:50:00,58.8,53.0,30.09,South,184,0.0,0.0,81,0.00,,CLR,0.00,VWS V14.01,2013-10-08 14:50:00,
2013-10-08 09:55:00,59.6,53.8,30.09,South,184,0.0,0.0,81,0.00,,CLR,0.00,VWS V14.01,2013-10-08 14:55:00,
2013-10-08 10:00:00,60.0,53.1,30.09,South,184,0.0,0.0,78,0.00,,CLR,0.00,VWS V14.01,2013-10-08 15:00:00,
2013-10-08 10:05:00,60.7,53.1,30.09,South,184,0.0,0.0,76,0.00,,CLR,0.00,VWS V14.01,2013-10-08 15:05:00,
2013-10-08 10:10:00,61.3,53.3,30.09,South,184,0.0,0.0,75,0.00,,CLR,0.00,VWS V14.01,2013-10-08 15:10:00,
2013-10-08 10:15:00,62.2,53.8,30.09,South,184,0.0,0.0,74,0.00,,CLR,0.00,VWS V14.01,2013-10-08 15:15:00,
2013-10-08 10:20:00,62.9,54.1,30.09,South,184,0.0,0.0,73,0.00,,CLR,0.00,VWS V14.01,2013-10-08 15:20:00,
2013-10-08 10:25:00,63.7,54.5,30.09,South,184,0.0,0.0,72,0.00,,CLR,0.00,VWS V14.01,2013-10-08 15:25:00,
2013-10-08 10:30:00,64.5,54.1,30.09,South,184,0.0,0.0,69,0.00,,CLR,0.00,VWS V14.01,2013-10-08 15:30:00,
2013-10-08 10:35:00,65.1,54.7,30.09,West,265,0.0,0.0,69,0.00,,CLR,0.00,VWS V14.01,2013-10-08 15:35:00,
2013-10-08 10:40:00,65.9,53.0,30.09,West,265,0.0,0.0,63,0.00,,CLR,0.00,VWS V14.01,2013-10-08 15:40:00,
2013-10-08 10:45:00,66.6,54.1,30.09,West,263,0.0,0.0,64,0.00,,CLR,0.00,VWS V14.01,2013-10-08 15:45:00,
2013-10-08 10:50:00,67.4,52.6,30.09,West,263,0.0,0.0,59,0.00,,CLR,0.00,VWS V14.01,2013-10-08 15:50:00,
2013-10-08 10:55:00,68.1,52.3,30.09,West,263,0.0,0.0,57,0.00,,CLR,0.00,VWS V14.01,2013-10-08 15:55:00,
2013-10-08 11:00:00,68.8,52.0,30.09,West,263,0.0,0.0,55,0.00,,CLR,0.00,VWS V14.01,2013-10-08 16:00:00,
2013-10-08 11:05:00,69.3,52.5,30.09,West,263,0.0,0.0,55,0.00,,CLR,0.00,VWS V14.01,2013-10-08 16:05:00,
2013-10-08 11:10:00,69.9,52.0,30.09,West,263,0.0,0.0,53,0.00,,CLR,0.00,VWS V14.01,2013-10-08 16:10:00,
2013-10-08 11:15:00,70.4,53.0,30.09,West,263,0.0,0.0,54,0.00,,CLR,0.00,VWS V14.01,2013-10-08 16:15:00,
2013-10-08 11:20:00,71.0,52.5,30.09,West,263,0.0,0.0,52,0.00,,CLR,0.00,VWS V14.01,2013-10-08 16:20:00,
2013-10-08 11:25:00,71.6,52.5,30.09,West,263,0.0,0.0,51,0.00,,CLR,0.00,VWS V14.01,2013-10-08 16:25:00,
2013-10-08 11:30:00,72.2,52.5,30.08,West,263,0.0,0.0,50,0.00,,CLR,0.00,VWS V14.01,2013-10-08 16:30:00,
2013-10-08 11:35:00,73.2,55.6,30.08,West,263,0.0,0.0,54,0.00,,CLR,0.00,VWS V14.01,2013-10-08 16:35:00,
2013-10-08 11:40:00,73.9,50.6,30.08,West,263,0.0,0.0,44,0.00,,CLR,0.00,VWS V14.01,2013-10-08 16:40:00,
2013-10-08 11:45:00,74.4,51.7,30.08,West,263,0.0,0.0,45,0.00,,CLR,0.00,VWS V14.01,2013-10-08 16:45:00,
2013-10-08 11:50:00,74.9,51.5,30.08,West,263,0.0,0.0,44,0.00,,CLR,0.00,VWS V14.01,2013-10-08 16:50:00,
2013-10-08 11:55:00,75.8,48.4,30.08,West,263,0.0,0.0,38,0.00,,CLR,0.00,VWS V14.01,2013-10-08 16:55:00,
2013-10-08 12:00:00,76.5,49.7,30.08,West,263,0.0,0.0,39,0.00,,CLR,0.00,VWS V14.01,2013-10-08 17:00:00,
2013-10-08 12:06:00,77.2,49.7,30.08,West,264,0.0,0.0,38,0.00,,CLR,0.00,VWS V14.01,2013-10-08 17:06:00,
2013-10-08 12:10:00,75.8,51.1,30.08,West,263,0.0,0.0,42,0.00,,CLR,0.00,VWS V14.01,2013-10-08 17:10:00,
2013-10-08 12:11:00,78.0,51.1,30.08,West,263,0.0,0.0,39,0.00,,CLR,0.00,VWS V14.01,2013-10-08 17:11:00,
2013-10-08 12:16:00,78.5,50.8,30.07,West,263,0.0,0.0,38,0.00,,CLR,0.00,VWS V14.01,2013-10-08 17:16:00,
2013-10-08 12:20:00,77.2,49.7,30.08,West,264,0.0,0.0,38,0.00,,CLR,0.00,VWS V14.01,2013-10-08 17:20:00,
2013-10-08 12:21:00,79.1,52.0,30.07,West,267,0.0,0.0,39,0.00,,CLR,0.00,VWS V14.01,2013-10-08 17:21:00,
2013-10-08 12:26:00,79.8,49.7,30.07,West,267,0.0,0.0,35,0.00,,CLR,0.00,VWS V14.01,2013-10-08 17:26:00,
2013-10-08 12:30:00,78.5,50.8,30.07,West,263,0.0,0.0,38,0.00,,CLR,0.00,VWS V14.01,2013-10-08 17:30:00,
2013-10-08 12:31:00,80.0,49.9,30.07,West,267,0.0,0.0,35,0.00,,CLR,0.00,VWS V14.01,2013-10-08 17:31:00,
2013-10-08 12:36:00,80.4,50.3,30.07,West,267,0.0,0.0,35,0.00,,CLR,0.00,VWS V14.01,2013-10-08 17:36:00,
2013-10-08 12:40:00,79.8,49.7,30.07,West,267,0.0,0.0,35,0.00,,CLR,0.00,VWS V14.01,2013-10-08 17:40:00,
2013-10-08 12:41:00,80.9,48.3,30.07,NW,324,0.0,0.0,32,0.00,,CLR,0.00,VWS V14.01,2013-10-08 17:41:00,
2013-10-08 12:46:00,80.9,49.1,30.07,NW,321,0.0,0.0,33,0.00,,CLR,0.00,VWS V14.01,2013-10-08 17:46:00,
2013-10-08 12:50:00,80.4,50.3,30.07,West,267,0.0,0.0,35,0.00,,CLR,0.00,VWS V14.01,2013-10-08 17:50:00,
2013-10-08 12:51:00,81.1,49.3,30.07,NW,321,0.0,0.0,33,0.00,,CLR,0.00,VWS V14.01,2013-10-08 17:51:00,
2013-10-08 12:56:00,81.3,47.8,30.07,NW,321,0.0,0.0,31,0.00,,CLR,0.00,VWS V14.01,2013-10-08 17:56:00,
2013-10-08 13:00:00,80.9,49.1,30.07,NW,321,0.0,0.0,33,0.00,,CLR,0.00,VWS V14.01,2013-10-08 18:00:00,
2013-10-08 13:01:00,81.9,50.8,30.06,NW,321,0.0,0.0,34,0.00,,CLR,0.00,VWS V14.01,2013-10-08 18:01:00,
2013-10-08 13:06:00,82.1,46.7,30.06,NW,321,0.0,0.0,29,0.00,,CLR,0.00,VWS V14.01,2013-10-08 18:06:00,
2013-10-08 13:10:00,81.3,47.8,30.07,NW,321,0.0,0.0,31,0.00,,CLR,0.00,VWS V14.01,2013-10-08 18:10:00,
2013-10-08 13:11:00,82.1,51.0,30.06,NW,321,0.0,0.0,34,0.00,,CLR,0.00,VWS V14.01,2013-10-08 18:11:00,
2013-10-08 13:16:00,82.3,45.0,30.05,NW,321,0.0,0.0,27,0.00,,CLR,0.00,VWS V14.01,2013-10-08 18:16:00,
2013-10-08 13:20:00,82.1,44.8,30.06,NW,321,0.0,0.0,27,0.00,,CLR,0.00,VWS V14.01,2013-10-08 18:20:00,
2013-10-08 13:21:00,82.5,48.8,30.05,NW,321,0.0,0.0,31,0.00,,CLR,0.00,VWS V14.01,2013-10-08 18:21:00,
2013-10-08 13:26:00,82.7,49.0,30.05,NW,321,0.0,0.0,31,0.00,,CLR,0.00,VWS V14.01,2013-10-08 18:26:00,
2013-10-08 13:30:00,82.3,45.0,30.05,NW,321,0.0,0.0,27,0.00,,CLR,0.00,VWS V14.01,2013-10-08 18:30:00,
2013-10-08 13:31:00,82.7,48.1,30.04,NW,321,0.0,0.0,30,0.00,,CLR,0.00,VWS V14.01,2013-10-08 18:31:00,
2013-10-08 13:36:00,83.1,49.4,30.04,NW,321,0.0,0.0,31,0.00,,CLR,0.00,VWS V14.01,2013-10-08 18:36:00,
2013-10-08 13:40:00,82.9,49.2,30.05,NW,321,0.0,0.0,31,0.00,,CLR,0.00,VWS V14.01,2013-10-08 18:40:00,
2013-10-08 13:41:00,83.3,51.2,30.04,NW,321,0.0,0.0,33,0.00,,CLR,0.00,VWS V14.01,2013-10-08 18:41:00,
2013-10-08 13:46:00,83.3,51.2,30.04,NW,321,0.0,0.0,33,0.00,,CLR,0.00,VWS V14.01,2013-10-08 18:46:00,
2013-10-08 13:50:00,83.1,49.4,30.04,NW,321,0.0,0.0,31,0.00,,CLR,0.00,VWS V14.01,2013-10-08 18:50:00,
2013-10-08 13:51:00,83.6,48.9,30.04,NW,321,0.0,0.0,30,0.00,,CLR,0.00,VWS V14.01,2013-10-08 18:51:00,
2013-10-08 13:56:00,84.0,50.2,30.04,NW,321,0.0,0.0,31,0.00,,CLR,0.00,VWS V14.01,2013-10-08 18:56:00,
2013-10-08 14:00:00,83.5,51.4,30.04,NW,321,0.0,0.0,33,0.00,,CLR,0.00,VWS V14.01,2013-10-08 19:00:00,
2013-10-08 14:01:00,84.0,49.3,30.03,NW,321,0.0,0.0,30,0.00,,CLR,0.00,VWS V14.01,2013-10-08 19:01:00,
2013-10-08 14:06:00,84.0,46.5,30.03,NW,321,0.0,0.0,27,0.00,,CLR,0.00,VWS V14.01,2013-10-08 19:06:00,
2013-10-08 14:10:00,84.0,50.2,30.04,NW,321,0.0,0.0,31,0.00,,CLR,0.00,VWS V14.01,2013-10-08 19:10:00,
2013-10-08 14:11:00,84.4,49.6,30.03,NW,321,0.0,0.0,30,0.00,,CLR,0.00,VWS V14.01,2013-10-08 19:11:00,
2013-10-08 14:16:00,84.2,48.5,30.02,NW,321,0.0,0.0,29,0.00,,CLR,0.00,VWS V14.01,2013-10-08 19:16:00,
2013-10-08 14:20:00,84.0,46.5,30.03,NW,321,0.0,0.0,27,0.00,,CLR,0.00,VWS V14.01,2013-10-08 19:20:00,
2013-10-08 14:21:00,84.0,47.4,30.02,NW,323,0.0,0.0,28,0.00,,CLR,0.00,VWS V14.01,2013-10-08 19:21:00,
2013-10-08 14:26:00,84.0,48.4,30.02,NW,323,0.0,0.0,29,0.00,,CLR,0.00,VWS V14.01,2013-10-08 19:26:00,
2013-10-08 14:30:00,84.2,44.6,30.02,NW,321,0.0,0.0,25,0.00,,CLR,0.00,VWS V14.01,2013-10-08 19:30:00,
2013-10-08 14:31:00,83.8,44.3,30.01,NW,322,0.0,0.0,25,0.00,,CLR,0.00,VWS V14.01,2013-10-08 19:31:00,
2013-10-08 14:36:00,83.8,46.3,30.01,NW,322,0.0,0.0,27,0.00,,CLR,0.00,VWS V14.01,2013-10-08 19:36:00,
2013-10-08 14:40:00,84.0,48.4,30.02,NW,323,0.0,0.0,29,0.00,,CLR,0.00,VWS V14.01,2013-10-08 19:40:00,
2013-10-08 14:41:00,84.0,46.5,30.01,NW,322,0.0,0.0,27,0.00,,CLR,0.00,VWS V14.01,2013-10-08 19:41:00,
2013-10-08 14:46:00,84.2,48.5,30.01,NW,322,0.0,0.0,29,0.00,,CLR,0.00,VWS V14.01,2013-10-08 19:46:00,
2013-10-08 14:50:00,83.8,46.3,30.01,NW,322,0.0,0.0,27,0.00,,CLR,0.00,VWS V14.01,2013-10-08 19:50:00,
2013-10-08 14:51:00,84.4,49.6,30.01,NW,322,0.0,0.0,30,0.00,,CLR,0.00,VWS V14.01,2013-10-08 19:51:00,
2013-10-08 14:56:00,84.4,44.8,30.01,NW,323,0.0,0.0,25,0.00,,CLR,0.00,VWS V14.01,2013-10-08 19:56:00,
2013-10-08 15:00:00,84.2,48.5,30.01,NW,322,0.0,0.0,29,0.00,,CLR,0.00,VWS V14.01,2013-10-08 20:00:00,
2013-10-08 15:01:00,84.8,50.0,30.00,NW,323,0.0,0.0,30,0.00,,CLR,0.00,VWS V14.01,2013-10-08 20:01:00,
2013-10-08 15:06:00,85.0,45.3,30.00,NW,323,0.0,0.0,25,0.00,,CLR,0.00,VWS V14.01,2013-10-08 20:06:00,
2013-10-08 15:10:00,84.4,44.8,30.01,NW,323,0.0,0.0,25,0.00,,CLR,0.00,VWS V14.01,2013-10-08 20:10:00,
2013-10-08 15:11:00,85.0,45.3,30.00,NW,323,0.0,0.0,25,0.00,,CLR,0.00,VWS V14.01,2013-10-08 20:11:00,
2013-10-08 15:16:00,85.0,49.2,30.00,NW,323,0.0,0.0,29,0.00,,CLR,0.00,VWS V14.01,2013-10-08 20:16:00,
2013-10-08 15:20:00,85.0,45.3,30.00,NW,323,0.0,0.0,25,0.00,,CLR,0.00,VWS V14.01,2013-10-08 20:20:00,
2013-10-08 15:21:00,85.0,51.9,30.00,NW,323,0.0,0.0,32,0.00,,CLR,0.00,VWS V14.01,2013-10-08 20:21:00,
2013-10-08 15:26:00,85.2,51.2,30.00,NW,323,0.0,0.0,31,0.00,,CLR,0.00,VWS V14.01,2013-10-08 20:26:00,
2013-10-08 15:30:00,85.0,49.2,30.00,NW,323,0.0,0.0,29,0.00,,CLR,0.00,VWS V14.01,2013-10-08 20:30:00,
2013-10-08 15:31:00,85.2,46.5,30.00,NW,323,0.0,0.0,26,0.00,,CLR,0.00,VWS V14.01,2013-10-08 20:31:00,
2013-10-08 15:36:00,85.0,49.2,30.00,NW,323,0.0,0.0,29,0.00,,CLR,0.00,VWS V14.01,2013-10-08 20:36:00,
2013-10-08 15:40:00,85.2,51.2,30.00,NW,323,0.0,0.0,31,0.00,,CLR,0.00,VWS V14.01,2013-10-08 20:40:00,
2013-10-08 15:41:00,85.2,45.5,30.00,NW,323,0.0,0.0,25,0.00,,CLR,0.00,VWS V14.01,2013-10-08 20:41:00,
2013-10-08 15:46:00,84.8,51.7,30.00,NW,323,0.0,0.0,32,0.00,,CLR,0.00,VWS V14.01,2013-10-08 20:46:00,
2013-10-08 15:50:00,85.0,49.2,30.00,NW,323,0.0,0.0,29,0.00,,CLR,0.00,VWS V14.01,2013-10-08 20:50:00,
2013-10-08 15:51:00,84.4,48.7,30.00,NW,323,0.0,0.0,29,0.00,,CLR,0.00,VWS V14.01,2013-10-08 20:51:00,
2013-10-08 15:56:00,83.8,44.3,30.00,NW,323,0.0,0.0,25,0.00,,CLR,0.00,VWS V14.01,2013-10-08 20:56:00,
2013-10-08 16:00:00,84.8,51.7,30.00,NW,323,0.0,0.0,32,0.00,,CLR,0.00,VWS V14.01,2013-10-08 21:00:00,
2013-10-08 16:01:00,83.3,49.5,29.99,NW,323,0.0,0.0,31,0.00,,CLR,0.00,VWS V14.01,2013-10-08 21:01:00,
2013-10-08 16:06:00,82.9,48.3,29.99,North,9,0.0,0.0,30,0.00,,CLR,0.00,VWS V14.01,2013-10-08 21:06:00,
2013-10-08 16:10:00,83.8,48.2,30.00,NW,323,0.0,0.0,29,0.00,,CLR,0.00,VWS V14.01,2013-10-08 21:10:00,
2013-10-08 16:11:00,82.5,51.3,29.99,North,9,0.0,0.0,34,0.00,,CLR,0.00,VWS V14.01,2013-10-08 21:11:00,
2013-10-08 16:16:00,81.9,49.2,29.99,North,9,0.0,0.0,32,0.00,,CLR,0.00,VWS V14.01,2013-10-08 21:16:00,
2013-10-08 16:20:00,82.9,48.3,29.99,North,9,0.0,0.0,30,0.00,,CLR,0.00,VWS V14.01,2013-10-08 21:20:00,
2013-10-08 16:21:00,81.7,52.2,29.99,North,9,0.0,0.0,36,0.00,,CLR,0.00,VWS V14.01,2013-10-08 21:21:00,
2013-10-08 16:26:00,81.1,49.3,29.99,North,9,0.0,0.0,33,0.00,,CLR,0.00,VWS V14.01,2013-10-08 21:26:00,
2013-10-08 16:30:00,81.9,49.2,29.99,North,9,0.0,0.0,32,0.00,,CLR,0.00,VWS V14.01,2013-10-08 21:30:00,
2013-10-08 16:31:00,80.9,48.3,29.99,North,9,0.0,0.0,32,0.00,,CLR,0.00,VWS V14.01,2013-10-08 21:31:00,
2013-10-08 16:36:00,80.7,51.3,29.99,North,9,0.0,0.0,36,0.00,,CLR,0.00,VWS V14.01,2013-10-08 21:36:00,
2013-10-08 16:40:00,81.1,49.3,29.99,North,9,0.0,0.0,33,0.00,,CLR,0.00,VWS V14.01,2013-10-08 21:40:00,
2013-10-08 16:41:00,80.4,52.5,29.99,North,9,0.0,0.0,38,0.00,,CLR,0.00,VWS V14.01,2013-10-08 21:41:00,
2013-10-08 16:46:00,80.2,47.7,29.98,North,9,0.0,0.0,32,0.00,,CLR,0.00,VWS V14.01,2013-10-08 21:46:00,
2013-10-08 16:50:00,80.7,51.3,29.99,North,9,0.0,0.0,36,0.00,,CLR,0.00,VWS V14.01,2013-10-08 21:50:00,
2013-10-08 16:51:00,79.8,48.2,29.98,North,9,0.0,0.0,33,0.00,,CLR,0.00,VWS V14.01,2013-10-08 21:51:00,
2013-10-08 16:55:00,79.6,51.8,29.98,North,9,0.0,0.0,38,0.00,,CLR,0.00,VWS V14.01,2013-10-08 21:55:00,
2013-10-08 17:00:00,79.3,50.8,29.98,North,9,0.0,0.0,37,0.00,,CLR,0.00,VWS V14.01,2013-10-08 22:00:00,
2013-10-08 17:05:00,78.9,50.4,29.98,North,9,0.0,0.0,37,0.00,,CLR,0.00,VWS V14.01,2013-10-08 22:05:00,
2013-10-08 17:10:00,78.5,52.9,29.98,North,9,0.0,0.0,41,0.00,,CLR,0.00,VWS V14.01,2013-10-08 22:10:00,
2013-10-08 17:15:00,78.3,50.6,29.98,North,9,0.0,0.0,38,0.00,,CLR,0.00,VWS V14.01,2013-10-08 22:15:00,
2013-10-08 17:20:00,78.0,50.4,29.98,North,9,0.0,0.0,38,0.00,,CLR,0.00,VWS V14.01,2013-10-08 22:20:00,
2013-10-08 17:25:00,77.8,52.2,29.98,North,9,0.0,0.0,41,0.00,,CLR,0.00,VWS V14.01,2013-10-08 22:25:00,
2013-10-08 17:30:00,77.6,51.4,29.98,North,9,0.0,0.0,40,0.00,,CLR,0.00,VWS V14.01,2013-10-08 22:30:00,
2013-10-08 17:36:00,77.2,51.0,29.98,North,9,0.0,0.0,40,0.00,,CLR,0.00,VWS V14.01,2013-10-08 22:36:00,
2013-10-08 17:40:00,77.8,52.2,29.98,North,9,0.0,0.0,41,0.00,,CLR,0.00,VWS V14.01,2013-10-08 22:40:00,
2013-10-08 17:41:00,76.9,51.4,29.98,North,9,0.0,0.0,41,0.00,,CLR,0.00,VWS V14.01,2013-10-08 22:41:00,
2013-10-08 17:46:00,76.5,51.1,29.98,North,9,0.0,0.0,41,0.00,,CLR,0.00,VWS V14.01,2013-10-08 22:46:00,
2013-10-08 17:50:00,77.2,51.0,29.98,North,9,0.0,0.0,40,0.00,,CLR,0.00,VWS V14.01,2013-10-08 22:50:00,
2013-10-08 17:51:00,76.2,52.1,29.98,North,9,0.0,0.0,43,0.00,,CLR,0.00,VWS V14.01,2013-10-08 22:51:00,
2013-10-08 17:56:00,76.0,53.8,29.98,North,9,0.0,0.0,46,0.00,,CLR,0.00,VWS V14.01,2013-10-08 22:56:00,
2013-10-08 18:00:00,76.5,51.1,29.98,North,9,0.0,0.0,41,0.00,,CLR,0.00,VWS V14.01,2013-10-08 23:00:00,
2013-10-08 18:01:00,75.6,52.2,29.98,North,9,0.0,0.0,44,0.00,,CLR,0.00,VWS V14.01,2013-10-08 23:01:00,
2013-10-08 18:06:00,75.5,52.1,29.98,North,9,0.0,0.0,44,0.00,,CLR,0.00,VWS V14.01,2013-10-08 23:06:00,
2013-10-08 18:10:00,76.0,53.8,29.98,North,9,0.0,0.0,46,0.00,,CLR,0.00,VWS V14.01,2013-10-08 23:10:00,
2013-10-08 18:11:00,75.1,52.3,29.98,North,9,0.0,0.0,45,0.00,,CLR,0.00,VWS V14.01,2013-10-08 23:11:00,
2013-10-08 18:16:00,74.8,52.1,29.98,North,9,0.0,0.0,45,0.00,,CLR,0.00,VWS V14.01,2013-10-08 23:16:00,
2013-10-08 18:20:00,75.3,51.9,29.98,North,9,0.0,0.0,44,0.00,,CLR,0.00,VWS V14.01,2013-10-08 23:20:00,
2013-10-08 18:21:00,74.6,52.5,29.98,North,9,0.0,0.0,46,0.00,,CLR,0.00,VWS V14.01,2013-10-08 23:21:00,
2013-10-08 18:26:00,74.2,52.7,29.98,North,9,0.0,0.0,47,0.00,,CLR,0.00,VWS V14.01,2013-10-08 23:26:00,
2013-10-08 18:30:00,74.8,52.1,29.98,North,9,0.0,0.0,45,0.00,,CLR,0.00,VWS V14.01,2013-10-08 23:30:00,
2013-10-08 18:31:00,74.1,52.0,29.98,North,9,0.0,0.0,46,0.00,,CLR,0.00,VWS V14.01,2013-10-08 23:31:00,
2013-10-08 18:36:00,73.7,52.2,29.98,North,9,0.0,0.0,47,0.00,,CLR,0.00,VWS V14.01,2013-10-08 23:36:00,
2013-10-08 18:40:00,74.2,52.7,29.98,North,9,0.0,0.0,47,0.00,,CLR,0.00,VWS V14.01,2013-10-08 23:40:00,
2013-10-08 18:41:00,73.4,52.5,29.98,North,9,0.0,0.0,48,0.00,,CLR,0.00,VWS V14.01,2013-10-08 23:41:00,
2013-10-08 18:46:00,73.0,52.7,29.98,North,9,0.0,0.0,49,0.00,,CLR,0.00,VWS V14.01,2013-10-08 23:46:00,
2013-10-08 18:50:00,73.7,52.2,29.98,North,9,0.0,0.0,47,0.00,,CLR,0.00,VWS V14.01,2013-10-08 23:50:00,
2013-10-08 18:51:00,72.7,54.1,29.98,North,9,0.0,0.0,52,0.00,,CLR,0.00,VWS V14.01,2013-10-08 23:51:00,
2013-10-08 18:56:00,72.3,54.2,29.98,North,9,0.0,0.0,53,0.00,,CLR,0.00,VWS V14.01,2013-10-08 23:56:00,
2013-10-08 19:00:00,73.0,52.7,29.98,North,9,0.0,0.0,49,0.00,,CLR,0.00,VWS V14.01,2013-10-09 00:00:00,
2013-10-08 19:01:00,71.8,52.7,29.98,North,9,0.0,0.0,51,0.00,,CLR,0.00,VWS V14.01,2013-10-09 00:01:00,
2013-10-08 19:06:00,71.5,53.0,29.98,North,9,0.0,0.0,52,0.00,,CLR,0.00,VWS V14.01,2013-10-09 00:06:00,
2013-10-08 19:10:00,72.3,54.2,29.98,North,9,0.0,0.0,53,0.00,,CLR,0.00,VWS V14.01,2013-10-09 00:10:00,
2013-10-08 19:11:00,71.0,54.0,29.98,North,9,0.0,0.0,55,0.00,,CLR,0.00,VWS V14.01,2013-10-09 00:11:00,
2013-10-08 19:16:00,70.4,54.0,29.98,North,9,0.0,0.0,56,0.00,,CLR,0.00,VWS V14.01,2013-10-09 00:16:00,
2013-10-08 19:20:00,71.5,53.0,29.98,North,9,0.0,0.0,52,0.00,,CLR,0.00,VWS V14.01,2013-10-09 00:20:00,
2013-10-08 19:21:00,69.8,54.4,29.98,North,9,0.0,0.0,58,0.00,,CLR,0.00,VWS V14.01,2013-10-09 00:21:00,
2013-10-08 19:26:00,69.3,54.8,29.98,North,9,0.0,0.0,60,0.00,,CLR,0.00,VWS V14.01,2013-10-09 00:26:00,
2013-10-08 19:30:00,70.4,54.0,29.98,North,9,0.0,0.0,56,0.00,,CLR,0.00,VWS V14.01,2013-10-09 00:30:00,
2013-10-08 19:31:00,68.6,54.2,29.98,North,9,0.0,0.0,60,0.00,,CLR,0.00,VWS V14.01,2013-10-09 00:31:00,
2013-10-08 19:36:00,68.3,55.2,29.98,North,9,0.0,0.0,63,0.00,,CLR,0.00,VWS V14.01,2013-10-09 00:36:00,
2013-10-08 19:40:00,69.1,54.7,29.98,North,9,0.0,0.0,60,0.00,,CLR,0.00,VWS V14.01,2013-10-09 00:40:00,
2013-10-08 19:41:00,67.8,54.8,29.98,North,9,0.0,0.0,63,0.00,,CLR,0.00,VWS V14.01,2013-10-09 00:41:00,
2013-10-08 19:46:00,67.3,54.3,29.98,North,9,0.0,0.0,63,0.00,,CLR,0.00,VWS V14.01,2013-10-09 00:46:00,
2013-10-08 19:50:00,68.3,55.2,29.98,North,9,0.0,0.0,63,0.00,,CLR,0.00,VWS V14.01,2013-10-09 00:50:00,
2013-10-08 19:51:00,66.8,54.7,29.98,North,9,0.0,0.0,65,0.00,,CLR,0.00,VWS V14.01,2013-10-09 00:51:00,
2013-10-08 19:56:00,66.4,54.7,29.98,North,9,0.0,0.0,66,0.00,,CLR,0.00,VWS V14.01,2013-10-09 00:56:00,
2013-10-08 20:00:00,67.3,54.3,29.98,North,9,0.0,0.0,63,0.00,,CLR,0.00,VWS V14.01,2013-10-09 01:00:00,
2013-10-08 20:01:00,66.1,54.4,29.98,North,9,0.0,0.0,66,0.00,,CLR,0.00,VWS V14.01,2013-10-09 01:01:00,
2013-10-08 20:06:00,65.8,54.5,29.98,North,9,0.0,0.0,67,0.00,,CLR,0.00,VWS V14.01,2013-10-09 01:06:00,
2013-10-08 20:10:00,66.4,54.7,29.98,North,9,0.0,0.0,66,0.00,,CLR,0.00,VWS V14.01,2013-10-09 01:10:00,
2013-10-08 20:11:00,65.5,55.1,29.98,North,9,0.0,0.0,69,0.00,,CLR,0.00,VWS V14.01,2013-10-09 01:11:00,
2013-10-08 20:16:00,65.1,54.7,29.98,North,9,0.0,0.0,69,0.00,,CLR,0.00,VWS V14.01,2013-10-09 01:16:00,
2013-10-08 20:20:00,65.8,54.5,29.98,North,9,0.0,0.0,67,0.00,,CLR,0.00,VWS V14.01,2013-10-09 01:20:00,
2013-10-08 20:21:00,64.8,54.8,29.98,North,9,0.0,0.0,70,0.00,,CLR,0.00,VWS V14.01,2013-10-09 01:21:00,
2013-10-08 20:26:00,64.5,54.5,29.98,North,9,0.0,0.0,70,0.00,,CLR,0.00,VWS V14.01,2013-10-09 01:26:00,
2013-10-08 20:30:00,65.0,54.6,29.98,North,9,0.0,0.0,69,0.00,,CLR,0.00,VWS V14.01,2013-10-09 01:30:00,
2013-10-08 20:31:00,64.2,54.2,29.98,North,9,0.0,0.0,70,0.00,,CLR,0.00,VWS V14.01,2013-10-09 01:31:00,
2013-10-08 20:36:00,64.0,54.4,29.98,North,9,0.0,0.0,71,0.00,,CLR,0.00,VWS V14.01,2013-10-09 01:36:00,
2013-10-08 20:40:00,64.5,54.5,29.98,North,9,0.0,0.0,70,0.00,,CLR,0.00,VWS V14.01,2013-10-09 01:40:00,
2013-10-08 20:41:00,63.7,54.1,29.98,North,9,0.0,0.0,71,0.00,,CLR,0.00,VWS V14.01,2013-10-09 01:41:00,
2013-10-08 20:46:00,63.5,54.3,29.98,North,9,0.0,0.0,72,0.00,,CLR,0.00,VWS V14.01,2013-10-09 01:46:00,
2013-10-08 20:50:00,64.0,54.4,29.98,North,9,0.0,0.0,71,0.00,,CLR,0.00,VWS V14.01,2013-10-09 01:50:00,
2013-10-08 20:51:00,63.2,54.0,29.98,North,9,0.0,0.0,72,0.00,,CLR,0.00,VWS V14.01,2013-10-09 01:51:00,
2013-10-08 20:56:00,63.0,53.5,29.98,North,9,0.0,0.0,71,0.00,,CLR,0.00,VWS V14.01,2013-10-09 01:56:00,
2013-10-08 21:00:00,63.5,54.3,29.98,North,9,0.0,0.0,72,0.00,,CLR,0.00,VWS V14.01,2013-10-09 02:00:00,
2013-10-08 21:01:00,62.7,53.9,29.99,North,9,0.0,0.0,73,0.00,,CLR,0.00,VWS V14.01,2013-10-09 02:01:00,
2013-10-08 21:06:00,62.6,54.2,29.99,North,9,0.0,0.0,74,0.00,,CLR,0.00,VWS V14.01,2013-10-09 02:06:00,
2013-10-08 21:10:00,63.0,53.5,29.98,North,9,0.0,0.0,71,0.00,,CLR,0.00,VWS V14.01,2013-10-09 02:10:00,
2013-10-08 21:11:00,62.4,53.6,29.99,North,9,0.0,0.0,73,0.00,,CLR,0.00,VWS V14.01,2013-10-09 02:11:00,
2013-10-08 21:16:00,62.2,54.2,29.99,North,9,0.0,0.0,75,0.00,,CLR,0.00,VWS V14.01,2013-10-09 02:16:00,
2013-10-08 21:20:00,62.6,54.2,29.99,North,9,0.0,0.0,74,0.00,,CLR,0.00,VWS V14.01,2013-10-09 02:20:00,
2013-10-08 21:21:00,62.1,53.7,29.99,North,9,0.0,0.0,74,0.00,,CLR,0.00,VWS V14.01,2013-10-09 02:21:00,
2013-10-08 21:26:00,61.9,53.9,29.99,North,9,0.0,0.0,75,0.00,,CLR,0.00,VWS V14.01,2013-10-09 02:26:00,
2013-10-08 21:30:00,62.2,54.2,29.99,North,9,0.0,0.0,75,0.00,,CLR,0.00,VWS V14.01,2013-10-09 02:30:00,
2013-10-08 21:31:00,61.6,53.2,29.99,North,9,0.0,0.0,74,0.00,,CLR,0.00,VWS V14.01,2013-10-09 02:31:00,
2013-10-08 21:36:00,61.5,53.2,29.99,North,9,0.0,0.0,74,0.00,,CLR,0.00,VWS V14.01,2013-10-09 02:36:00,
2013-10-08 21:40:00,61.8,53.8,29.99,North,9,0.0,0.0,75,0.00,,CLR,0.00,VWS V14.01,2013-10-09 02:40:00,
2013-10-08 21:41:00,61.3,53.0,29.99,North,9,0.0,0.0,74,0.00,,CLR,0.00,VWS V14.01,2013-10-09 02:41:00,
2013-10-08 21:46:00,61.1,53.5,30.00,North,9,0.0,0.0,76,0.00,,CLR,0.00,VWS V14.01,2013-10-09 02:46:00,
2013-10-08 21:50:00,61.5,53.2,29.99,North,9,0.0,0.0,74,0.00,,CLR,0.00,VWS V14.01,2013-10-09 02:50:00,
2013-10-08 21:51:00,61.0,53.4,30.00,North,9,0.0,0.0,76,0.00,,CLR,0.00,VWS V14.01,2013-10-09 02:51:00,
2013-10-08 21:56:00,60.8,53.5,30.00,North,9,0.0,0.0,77,0.00,,CLR,0.00,VWS V14.01,2013-10-09 02:56:00,
2013-10-08 22:00:00,61.1,53.5,30.00,North,9,0.0,0.0,76,0.00,,CLR,0.00,VWS V14.01,2013-10-09 03:00:00,
2013-10-08 22:01:00,60.7,53.5,30.00,North,9,0.0,0.0,77,0.00,,CLR,0.00,VWS V14.01,2013-10-09 03:01:00,
2013-10-08 22:06:00,60.5,53.6,30.00,North,9,0.0,0.0,78,0.00,,CLR,0.00,VWS V14.01,2013-10-09 03:06:00,
2013-10-08 22:10:00,60.8,53.5,30.00,North,9,0.0,0.0,77,0.00,,CLR,0.00,VWS V14.01,2013-10-09 03:10:00,
2013-10-08 22:11:00,60.4,53.9,30.00,North,9,0.0,0.0,79,0.00,,CLR,0.00,VWS V14.01,2013-10-09 03:11:00,
2013-10-08 22:16:00,60.2,53.7,30.00,North,9,0.0,0.0,79,0.00,,CLR,0.00,VWS V14.01,2013-10-09 03:16:00,
2013-10-08 22:20:00,60.5,53.6,30.00,North,9,0.0,0.0,78,0.00,,CLR,0.00,VWS V14.01,2013-10-09 03:20:00,
2013-10-08 22:21:00,60.0,53.5,30.00,North,9,0.0,0.0,79,0.00,,CLR,0.00,VWS V14.01,2013-10-09 03:21:00,
2013-10-08 22:26:00,59.7,53.2,30.00,North,9,0.0,0.0,79,0.00,,CLR,0.00,VWS V14.01,2013-10-09 03:26:00,
2013-10-08 22:30:00,60.2,53.7,30.00,North,9,0.0,0.0,79,0.00,,CLR,0.00,VWS V14.01,2013-10-09 03:30:00,
2013-10-08 22:31:00,59.6,53.4,30.00,North,9,0.0,0.0,80,0.00,,CLR,0.00,VWS V14.01,2013-10-09 03:31:00,
2013-10-08 22:36:00,59.4,53.2,30.00,North,9,0.0,0.0,80,0.00,,CLR,0.00,VWS V14.01,2013-10-09 03:36:00,
2013-10-08 22:40:00,59.7,53.2,30.00,North,9,0.0,0.0,79,0.00,,CLR,0.00,VWS V14.01,2013-10-09 03:40:00,
2013-10-08 22:41:00,59.3,53.1,30.00,North,9,0.0,0.0,80,0.00,,CLR,0.00,VWS V14.01,2013-10-09 03:41:00,
2013-10-08 22:46:00,59.3,53.1,30.00,North,9,0.0,0.0,80,0.00,,CLR,0.00,VWS V14.01,2013-10-09 03:46:00,
2013-10-08 22:50:00,59.4,53.2,30.00,North,9,0.0,0.0,80,0.00,,CLR,0.00,VWS V14.01,2013-10-09 03:50:00,
2013-10-08 22:51:00,59.1,52.9,30.00,North,9,0.0,0.0,80,0.00,,CLR,0.00,VWS V14.01,2013-10-09 03:51:00,
2013-10-08 22:56:00,59.0,52.5,30.00,North,9,0.0,0.0,79,0.00,,CLR,0.00,VWS V14.01,2013-10-09 03:56:00,
2013-10-08 23:00:00,59.3,53.1,30.00,North,9,0.0,0.0,80,0.00,,CLR,0.00,VWS V14.01,2013-10-09 04:00:00,
2013-10-08 23:01:00,58.8,52.3,30.00,North,9,0.0,0.0,79,0.00,,CLR,0.00,VWS V14.01,2013-10-09 04:01:00,
2013-10-08 23:02:00,58.8,52.3,30.00,North,9,0.0,0.0,79,0.00,,CLR,0.00,VWS V14.01,2013-10-09 04:02:00,
2013-10-08 23:07:00,58.7,52.2,30.00,North,9,0.0,0.0,79,0.00,,CLR,0.00,VWS V14.01,2013-10-09 04:07:00,
2013-10-08 23:10:00,59.0,52.5,30.00,North,9,0.0,0.0,79,0.00,,CLR,0.00,VWS V14.01,2013-10-09 04:10:00,
2013-10-08 23:12:00,58.7,52.6,30.00,North,9,0.0,0.0,80,0.00,,CLR,0.00,VWS V14.01,2013-10-09 04:12:00,
2013-10-08 23:17:00,58.5,52.7,30.00,North,9,0.0,0.0,81,0.00,,CLR,0.00,VWS V14.01,2013-10-09 04:17:00,
2013-10-08 23:20:00,58.7,52.2,30.00,North,9,0.0,0.0,79,0.00,,CLR,0.00,VWS V14.01,2013-10-09 04:20:00,
2013-10-08 23:22:00,58.5,52.7,30.00,North,9,0.0,0.0,81,0.00,,CLR,0.00,VWS V14.01,2013-10-09 04:22:00,
2013-10-08 23:27:00,58.5,52.4,30.00,North,9,0.0,0.0,80,0.00,,CLR,0.00,VWS V14.01,2013-10-09 04:27:00,
2013-10-08 23:30:00,58.5,52.7,30.00,North,9,0.0,0.0,81,0.00,,CLR,0.00,VWS V14.01,2013-10-09 04:30:00,
2013-10-08 23:32:00,58.4,52.6,30.00,North,9,0.0,0.0,81,0.00,,CLR,0.00,VWS V14.01,2013-10-09 04:32:00,
2013-10-08 23:37:00,58.4,52.6,30.00,North,9,0.0,0.0,81,0.00,,CLR,0.00,VWS V14.01,2013-10-09 04:37:00,
2013-10-08 23:40:00,58.5,52.4,30.00,North,9,0.0,0.0,80,0.00,,CLR,0.00,VWS V14.01,2013-10-09 04:40:00,
2013-10-08 23:42:00,58.4,52.3,30.00,North,9,0.0,0.0,80,0.00,,CLR,0.00,VWS V14.01,2013-10-09 04:42:00,
2013-10-08 23:47:00,58.5,52.4,30.00,North,9,0.0,0.0,80,0.00,,CLR,0.00,VWS V14.01,2013-10-09 04:47:00,
2013-10-08 23:50:00,58.4,52.6,30.00,North,9,0.0,0.0,81,0.00,,CLR,0.00,VWS V14.01,2013-10-09 04:50:00,
2013-10-08 23:52:00,58.4,51.9,30.00,North,9,0.0,0.0,79,0.00,,CLR,0.00,VWS V14.01,2013-10-09 04:52:00,
2013-10-08 23:57:00,58.4,51.6,30.00,North,9,0.0,0.0,78,0.00,,CLR,0.00,VWS V14.01,2013-10-09 04:57:00,